Date,TemperatureHighF,TemperatureAvgF,TemperatureLowF,DewpointHighF,DewpointAvgF,DewpointLowF,HumidityHigh,HumidityAvg,HumidityLow,PressureMaxIn,PressureMinIn,WindSpeedMaxMPH,WindSpeedAvgMPH,GustSpeedMaxMPH,PrecipitationSumIn
2014-1-1,43,41,40,42,40,39,98,96,92,30.35,30.18,8,1,8,0.09
2014-1-2,46,43,40,43,41,36,97,93,84,30.19,29.76,19,2,20,0.68
2014-1-3,47,40,34,37,34,31,93,82,65,30.32,29.89,25,3,25,0.00
2014-1-4,42,35,31,35,32,29,95,88,71,30.44,30.32,6,1,7,0.00
2014-1-5,42,34,31,36,32,30,96,90,74,30.49,30.31,7,1,7,0.02
2014-1-6,39,34,30,36,32,29,97,94,87,30.31,30.06,7,1,7,0.01
2014-1-7,45,41,36,42,39,34,97,94,86,30.06,29.90,11,1,12,0.34
2014-1-8,46,44,42,44,42,39,96,94,89,29.92,29.45,24,3,24,0.72
2014-1-9,43,40,38,40,37,35,95,90,84,29.83,29.57,15,3,22,0.11
2014-1-10,46,42,39,44,40,37,96,92,89,29.94,29.31,28,3,28,1.01
2014-1-11,48,44,39,46,40,29,96,89,60,29.65,29.09,32,5,32,0.83
2014-1-12,42,40,38,40,36,29,95,87,60,30.10,29.65,9,2,9,0.13
2014-1-13,50,45,40,47,43,38,97,93,81,30.50,30.09,12,1,12,0.02
2014-1-14,50,45,42,46,43,41,97,95,87,30.58,30.48,6,1,6,0.01
2014-1-15,47,44,42,45,43,40,97,95,90,30.55,30.48,7,1,7,0.00
2014-1-16,44,40,37,42,39,36,98,97,92,30.48,30.32,6,1,6,0.01
2014-1-17,42,37,34,42,37,33,98,97,94,30.33,30.12,6,0,6,0.01
2014-1-18,41,38,33,39,37,32,98,96,92,30.21,30.11,11,1,11,0.01
2014-1-19,46,40,37,41,38,36,95,92,82,30.29,30.12,8,1,8,0.00
2014-1-20,47,38,35,40,36,34,97,93,77,30.32,30.24,9,1,9,0.00
2014-1-21,43,38,33,41,36,32,98,94,85,30.27,30.14,9,1,9,0.01
2014-1-22,48,40,36,41,37,34,96,90,77,30.42,30.25,9,1,9,0.00
2014-1-23,45,38,35,41,36,34,97,95,84,30.45,30.35,7,0,7,0.00
2014-1-24,49,40,33,44,38,32,98,93,79,30.40,30.25,6,0,6,0.01
2014-1-25,50,40,33,43,38,32,98,93,76,30.32,30.23,5,1,8,0.02
2014-1-26,42,35,31,42,34,30,98,97,95,30.23,30.05,4,0,5,0.01
2014-1-27,45,38,32,42,36,32,98,95,76,30.17,30.06,9,0,9,0.01
2014-1-28,45,42,40,42,41,38,97,95,79,30.16,29.88,7,0,7,0.07
2014-1-29,49,43,41,45,41,38,97,93,83,29.88,29.61,12,1,12,0.04
2014-1-30,42,40,38,40,38,36,95,93,89,29.90,29.69,9,0,9,0.19
2014-1-31,43,37,33,38,34,31,97,90,74,30.11,29.90,7,1,7,0.00
2014-2-1,39,36,35,34,32,30,93,86,73,30.13,30.05,4,0,5,0.00
2014-2-2,42,36,32,36,32,29,93,85,68,30.05,29.94,9,1,9,0.00
2014-2-3,41,34,30,30,22,9,86,63,38,30.19,30.00,12,2,12,0.00
2014-2-4,35,30,26,14,7,1,53,37,25,30.40,30.18,15,3,15,0.00
2014-2-5,33,27,21,14,7,0,64,43,30,30.46,30.29,15,2,15,0.00
2014-2-6,32,24,17,14,10,2,68,53,34,30.29,29.75,8,1,9,0.00
2014-2-7,34,27,23,20,17,14,76,65,52,29.91,29.76,11,1,11,0.00
2014-2-8,37,29,22,22,18,15,76,63,43,30.03,29.84,10,1,10,0.00
2014-2-9,38,32,26,28,22,16,81,67,43,30.06,29.90,9,2,9,0.00
2014-2-10,46,38,31,43,36,27,95,90,76,30.02,29.82,19,2,19,0.26
2014-2-11,46,42,35,43,38,33,97,86,68,30.03,29.38,29,4,29,0.23
2014-2-12,51,44,39,43,39,37,95,84,63,29.75,29.27,26,4,26,0.36
2014-2-13,53,46,40,42,38,35,92,76,57,29.94,29.56,20,2,20,0.19
2014-2-14,50,45,38,45,40,34,92,83,58,29.86,29.42,30,4,33,0.28
2014-2-15,48,42,38,43,38,32,93,86,56,29.86,29.01,37,3,37,0.35
2014-2-16,42,40,36,40,36,32,94,87,75,29.78,29.36,32,6,32,0.72
2014-2-17,47,42,38,42,38,36,93,88,74,29.79,29.55,13,2,13,0.07
2014-2-18,44,41,37,42,38,31,94,88,71,29.81,29.34,27,5,27,0.33
2014-2-19,46,39,33,36,33,30,93,79,64,29.99,29.69,18,2,18,0.09
2014-2-20,49,43,38,38,34,30,91,73,51,30.09,29.82,20,4,20,0.01
2014-2-21,44,38,32,32,27,23,88,67,50,30.21,30.09,15,2,17,0.00
2014-2-22,35,33,32,33,31,29,96,92,80,30.18,29.99,7,1,8,0.29
2014-2-23,34,32,32,32,31,31,96,96,94,30.04,29.93,5,0,7,0.22
2014-2-24,34,32,32,33,31,31,97,96,93,30.13,30.04,4,0,4,0.11
2014-2-25,48,36,32,41,34,31,97,93,75,30.14,29.99,8,1,8,1.50
2014-2-26,44,38,33,40,36,32,98,93,75,29.99,29.69,8,1,8,0.02
2014-2-27,46,41,37,42,39,36,97,93,82,29.71,29.60,7,1,7,0.00
2014-2-28,52,42,36,44,39,30,97,88,70,29.71,29.53,10,1,10,0.00
2014-3-1,42,38,34,32,24,13,84,59,32,29.64,29.54,15,2,15,0.00
2014-3-2,39,36,33,38,34,28,96,91,75,29.64,29.47,11,1,11,0.46
2014-3-3,48,42,37,44,40,32,96,92,80,29.81,29.53,17,2,17,0.08
2014-3-4,38,37,36,36,35,32,97,93,81,29.91,29.78,5,0,5,0.20
2014-3-5,50,43,37,47,41,36,97,94,86,29.78,29.29,17,1,17,0.55
2014-3-6,50,48,44,47,46,43,96,94,90,29.91,29.29,13,3,23,0.66
2014-3-7,50,47,44,46,44,42,96,89,78,30.17,29.91,16,2,16,0.00
2014-3-8,50,47,43,46,44,42,96,89,78,30.03,29.60,24,3,24,0.94
2014-3-9,55,47,43,47,43,40,96,86,65,29.94,29.67,9,2,9,0.00
2014-3-10,54,46,39,44,38,34,95,77,51,30.34,29.89,24,3,24,0.02
2014-3-11,50,44,38,44,38,34,91,82,70,30.52,30.34,8,1,8,0.00
2014-3-12,50,44,38,42,39,35,92,82,67,30.40,30.11,7,1,12,0.00
2014-3-13,50,43,36,45,39,35,94,88,75,30.13,29.87,10,1,10,0.11
2014-3-14,55,47,42,47,43,41,95,87,65,30.21,29.76,13,1,13,0.19
2014-3-15,48,46,42,46,42,38,94,85,71,30.24,30.00,23,4,23,0.39
2014-3-16,48,45,39,45,41,36,91,86,82,30.07,29.88,21,3,21,0.06
2014-3-17,52,43,38,36,33,30,86,70,49,30.24,29.89,24,4,27,0.00
2014-3-18,47,42,38,41,38,34,94,86,77,30.26,30.07,8,2,8,0.19
2014-3-19,47,43,39,44,38,29,95,84,63,30.08,29.87,20,3,20,0.29
2014-3-20,50,42,35,38,32,29,87,69,47,30.28,30.08,14,3,15,0.00
2014-3-21,48,40,33,38,34,31,92,79,60,30.32,30.25,12,2,12,0.00
2014-3-22,40,38,36,37,35,32,95,88,77,30.26,30.21,10,1,10,0.09
2014-3-23,47,41,34,39,36,33,95,82,65,30.30,30.22,10,1,10,0.00
2014-3-24,52,46,40,41,38,32,90,75,46,30.22,29.79,8,1,8,0.00
2014-3-25,52,48,44,45,43,39,96,84,66,29.78,29.37,25,3,25,0.72
2014-3-26,53,47,40,46,43,38,95,87,74,29.50,29.42,12,2,12,0.11
2014-3-27,51,46,44,46,44,42,96,91,81,29.76,29.50,9,1,9,0.20
2014-3-28,51,47,44,46,43,40,94,87,78,29.76,29.53,23,5,23,0.36
2014-3-29,50,47,45,46,44,42,95,90,83,29.65,29.53,22,5,22,0.60
2014-3-30,52,46,42,44,42,38,95,86,62,29.93,29.64,12,2,14,0.17
2014-3-31,56,46,39,44,40,37,93,80,62,29.93,29.72,14,2,14,0.00
2014-4-1,54,47,38,47,40,34,85,77,60,29.79,29.72,7,1,7,0.00
2014-4-2,52,47,40,45,40,35,85,76,64,29.92,29.79,12,2,12,0.00
2014-4-3,49,47,45,44,41,35,90,78,59,29.90,29.74,20,4,20,0.05
2014-4-4,54,47,42,46,43,40,94,86,68,29.87,29.75,10,2,11,0.06
2014-4-5,49,45,41,45,42,39,94,90,78,29.97,29.86,13,2,15,0.17
2014-4-6,50,46,42,46,43,40,96,90,80,30.21,29.97,13,2,13,0.02
2014-4-7,57,51,46,51,47,43,95,86,77,30.22,30.00,13,1,13,0.01
2014-4-8,58,53,47,52,48,37,91,82,60,30.05,29.93,20,3,20,0.01
2014-4-9,57,48,40,42,38,22,83,69,28,30.17,30.03,16,2,16,0.00
2014-4-10,51,47,43,44,41,35,89,81,65,30.21,30.09,7,1,7,0.00
2014-4-11,57,50,44,49,44,40,92,83,69,30.10,29.96,12,2,12,0.00
2014-4-12,63,50,40,47,41,35,94,73,42,30.13,29.98,13,2,13,0.00
2014-4-13,62,52,44,46,37,25,74,58,31,30.28,30.13,9,2,10,0.00
2014-4-14,59,52,44,46,38,33,78,61,39,30.13,29.95,16,2,16,0.00
2014-4-15,56,50,45,46,42,38,93,73,56,30.07,29.97,12,2,15,0.30
2014-4-16,52,47,44,48,45,42,96,92,83,29.98,29.79,19,3,20,0.63
2014-4-17,53,47,43,49,45,40,96,93,86,29.79,29.58,19,3,21,0.74
2014-4-18,54,48,43,43,39,33,88,70,54,30.02,29.75,12,3,13,0.00
2014-4-19,50,47,44,45,42,39,91,83,69,30.01,29.67,23,3,23,0.11
2014-4-20,54,48,41,47,42,38,95,78,63,30.21,30.02,22,2,22,0.00
2014-4-21,53,47,44,48,44,42,94,90,80,30.06,29.75,14,2,14,0.35
2014-4-22,46,45,45,42,42,41,89,88,87,29.76,29.73,8,3,8,0.00
2014-4-23,55,48,44,46,42,40,92,82,57,29.80,29.53,20,3,20,0.13
2014-4-24,54,50,46,47,44,40,88,80,70,29.80,29.45,21,3,21,0.08
2014-4-25,55,48,42,46,41,36,93,77,49,29.84,29.74,9,2,10,0.00
2014-4-26,53,47,40,44,40,32,90,76,48,29.74,29.50,23,4,25,0.09
2014-4-27,55,48,43,45,42,38,93,80,63,29.98,29.49,23,3,23,0.20
2014-4-28,55,48,41,47,42,36,92,78,53,30.31,29.98,10,2,12,0.00
2014-4-29,66,54,48,48,44,39,83,68,41,30.48,30.31,9,1,11,0.00
2014-4-30,70,58,50,54,48,44,83,70,51,30.38,30.12,6,1,7,0.00
2014-5-1,79,63,54,53,48,42,80,59,32,30.12,29.86,8,1,8,0.00
2014-5-2,65,60,54,54,49,42,94,70,52,29.92,29.76,10,2,10,0.06
2014-5-3,57,52,48,52,47,42,94,85,72,29.77,29.65,14,1,14,0.19
2014-5-4,56,50,47,50,48,46,96,91,79,29.77,29.64,15,1,15,0.34
2014-5-5,58,52,47,51,48,45,96,89,73,29.92,29.77,9,1,9,0.02
2014-5-6,60,53,47,50,46,42,92,78,55,29.97,29.90,8,2,8,0.00
2014-5-7,63,54,45,52,46,42,91,77,53,29.96,29.77,11,2,11,0.00
2014-5-8,58,52,50,50,47,44,94,84,69,29.78,29.53,17,2,17,0.64
2014-5-9,60,53,49,49,46,42,95,80,58,29.90,29.56,9,2,9,0.04
2014-5-10,60,53,47,52,47,45,94,82,69,30.19,29.90,12,2,12,0.02
2014-5-11,64,55,49,53,48,45,90,78,54,30.28,30.19,7,1,8,0.00
2014-5-12,67,59,50,54,49,44,85,71,51,30.33,30.23,8,1,8,0.00
2014-5-13,69,62,57,56,53,48,87,72,54,30.34,30.24,10,2,10,0.00
2014-5-14,69,63,56,60,54,48,87,71,58,30.27,30.06,7,1,7,0.00
2014-5-15,76,65,58,59,55,50,83,69,47,30.06,29.85,8,1,9,0.00
2014-5-16,64,61,58,57,53,50,85,75,62,30.00,29.87,14,3,15,0.00
2014-5-17,65,59,55,55,51,48,85,77,68,29.97,29.79,8,2,9,0.00
2014-5-18,65,58,51,56,51,47,88,79,65,29.79,29.73,8,1,8,0.00
2014-5-19,64,58,53,56,53,50,92,84,69,29.99,29.78,8,2,8,0.09
2014-5-20,68,60,53,58,54,50,94,81,65,30.05,29.99,7,2,7,0.00
2014-5-21,63,58,54,54,52,49,88,80,69,30.08,30.01,11,1,11,0.00
2014-5-22,64,59,55,58,55,52,94,87,75,30.07,29.92,16,1,16,0.09
2014-5-23,65,60,56,60,56,53,96,89,77,30.01,29.86,7,2,9,0.61
2014-5-24,62,58,54,54,52,50,93,82,69,30.10,30.00,11,2,11,0.00
2014-5-25,57,54,52,54,51,49,94,88,81,30.05,29.90,9,1,10,0.13
2014-5-26,64,56,52,55,50,44,95,79,52,30.09,29.90,11,2,11,0.16
2014-5-27,66,56,49,53,48,43,90,75,54,30.10,29.99,14,3,14,0.00
2014-5-28,64,56,48,54,50,44,90,79,65,30.00,29.97,11,2,11,0.00
2014-5-29,58,56,52,54,50,47,92,82,74,30.15,30.00,9,1,11,0.02
2014-5-30,68,59,50,54,51,46,95,75,46,30.12,29.93,15,3,15,0.00
2014-5-31,71,61,52,57,53,48,88,74,54,30.00,29.92,9,2,10,0.00
2014-6-1,69,61,54,59,55,50,89,79,66,30.03,29.87,8,2,9,0.00
2014-6-2,76,64,53,58,54,48,90,71,45,29.91,29.74,12,2,12,0.00
2014-6-3,64,59,52,54,51,48,88,77,60,30.00,29.76,12,2,12,0.00
2014-6-4,69,60,53,52,45,27,83,61,22,30.06,29.99,18,3,18,0.00
2014-6-5,68,58,48,54,45,36,76,63,37,30.09,29.99,9,2,11,0.00
2014-6-6,68,60,50,54,48,41,77,66,52,30.07,29.99,9,2,9,0.00
2014-6-7,70,63,55,59,54,45,85,72,60,30.09,30.01,11,2,11,0.00
2014-6-8,66,62,59,60,56,52,91,81,71,30.11,29.98,10,2,10,0.00
2014-6-9,70,62,54,54,47,41,82,60,36,30.04,29.98,15,4,23,0.00
2014-6-10,63,58,54,55,52,45,94,80,63,30.03,29.96,11,1,11,0.32
2014-6-11,65,59,51,55,53,49,94,80,64,30.02,29.75,7,1,7,0.00
2014-6-12,69,62,56,57,55,52,89,78,62,29.76,29.70,12,2,12,0.00
2014-6-13,65,61,56,58,55,51,89,80,71,29.95,29.71,13,2,13,0.00
2014-6-14,60,57,54,55,52,50,93,85,75,30.00,29.88,12,2,13,0.01
2014-6-15,62,56,51,55,51,49,95,86,67,29.88,29.73,9,1,10,0.45
2014-6-16,66,57,47,54,49,44,95,77,58,29.87,29.74,11,2,12,0.01
2014-6-17,66,60,56,56,52,48,82,76,69,30.02,29.87,10,2,10,0.00
2014-6-18,62,59,55,53,52,50,88,78,70,30.01,29.93,11,2,11,0.00
2014-6-19,64,60,57,55,53,48,89,77,67,29.93,29.85,15,2,16,0.02
2014-6-20,64,57,49,52,48,45,89,73,56,30.09,29.90,15,2,15,0.00
2014-6-21,69,59,50,55,50,46,89,73,54,30.08,29.96,12,2,12,0.00
2014-6-22,77,63,52,60,54,49,89,72,40,30.05,29.91,8,2,8,0.00
2014-6-23,67,63,58,60,56,49,94,79,69,29.98,29.90,7,1,7,0.05
2014-6-24,68,62,58,60,58,56,95,87,74,30.03,29.97,9,1,9,0.00
2014-6-25,76,66,57,62,57,51,92,75,47,29.97,29.68,11,2,11,0.00
2014-6-26,72,65,58,62,57,51,82,74,60,29.70,29.63,19,3,19,0.00
2014-6-27,63,59,56,59,55,50,92,85,76,29.75,29.64,16,3,16,0.27
2014-6-28,67,61,57,58,56,53,91,83,67,29.92,29.75,16,3,18,0.03
2014-6-29,67,61,56,58,55,52,89,81,69,30.16,29.92,10,1,10,0.01
2014-6-30,78,64,54,60,56,52,93,75,44,30.19,29.97,11,2,14,0.00
2014-7-1,88,71,60,64,58,47,84,66,25,29.97,29.64,10,1,11,0.00
2014-7-2,75,70,65,62,58,54,84,67,51,29.87,29.65,13,2,13,0.00
2014-7-3,70,64,58,59,55,49,83,72,58,30.01,29.87,12,2,14,0.00
2014-7-4,63,60,55,57,53,49,87,78,70,29.98,29.96,10,1,10,0.04
2014-7-5,66,60,57,59,55,51,91,81,71,30.10,29.98,11,1,11,0.07
2014-7-6,70,63,58,63,59,56,96,88,73,30.12,30.04,8,1,8,0.29
2014-7-7,82,69,59,65,61,58,97,78,50,30.10,29.94,13,2,13,0.00
2014-7-8,74,68,61,64,61,58,93,79,67,30.00,29.87,10,2,10,0.00
2014-7-9,78,68,58,59,55,45,89,66,32,29.93,29.82,16,3,19,0.00
2014-7-10,78,66,55,61,56,49,89,70,48,29.91,29.80,10,2,10,0.00
2014-7-11,91,71,60,65,59,56,90,68,34,29.91,29.83,10,1,10,0.00
2014-7-12,81,73,64,64,59,55,84,62,44,30.02,29.91,7,1,8,0.00
2014-7-13,94,76,65,65,60,54,80,61,28,30.06,29.89,8,1,8,0.00
2014-7-14,75,71,65,66,62,58,86,72,60,30.03,29.93,14,2,14,0.00
2014-7-15,75,69,62,66,62,59,90,80,69,30.03,29.89,6,1,6,0.00
2014-7-16,80,72,63,65,61,50,90,70,39,29.94,29.79,19,2,19,0.00
2014-7-17,72,67,63,58,55,50,76,66,53,29.92,29.81,15,3,15,0.00
2014-7-18,69,65,59,62,56,49,84,72,52,30.00,29.90,10,2,10,0.00
2014-7-19,73,66,61,63,60,56,92,80,66,29.91,29.79,15,2,18,0.07
2014-7-20,65,62,60,57,54,52,85,75,67,29.88,29.79,11,1,11,0.00
2014-7-21,70,64,60,60,56,49,87,76,55,29.96,29.88,10,2,10,0.00
2014-7-22,70,64,58,60,56,51,86,76,64,29.98,29.90,11,2,11,0.00
2014-7-23,64,61,56,61,57,53,94,89,83,29.95,29.86,13,1,13,0.79
2014-7-24,65,59,53,59,56,52,96,90,77,30.09,29.93,11,1,13,0.61
2014-7-25,72,62,57,58,55,51,93,80,56,30.10,30.01,9,1,9,0.00
2014-7-26,72,64,55,60,57,52,93,78,57,30.11,30.02,7,1,7,0.00
2014-7-27,83,69,58,64,59,54,88,72,44,30.14,29.99,11,2,14,0.00
2014-7-28,77,70,61,66,61,55,84,74,64,30.06,29.97,7,1,7,0.00
2014-7-29,75,70,63,66,61,56,85,74,65,30.06,29.95,6,1,6,0.00
2014-7-30,77,70,63,66,62,57,90,76,62,30.07,29.98,8,1,8,0.00
2014-7-31,86,72,62,66,61,56,86,69,42,30.06,29.92,9,1,10,0.00
2014-8-1,75,69,62,66,60,54,85,73,64,29.99,29.88,10,1,10,0.00
2014-8-2,83,72,63,66,63,59,89,74,52,29.93,29.82,8,1,8,0.00
2014-8-3,83,71,61,65,61,57,87,72,51,30.00,29.84,7,1,7,0.00
2014-8-4,77,70,62,65,61,57,89,74,57,29.93,29.81,6,1,7,0.00
2014-8-5,71,67,64,63,61,57,90,81,70,29.99,29.84,10,1,10,0.00
2014-8-6,74,66,60,63,60,58,93,82,66,30.06,29.96,7,1,7,0.00
2014-8-7,72,66,59,61,58,54,89,76,60,30.00,29.93,6,1,6,0.00
2014-8-8,71,66,60,59,57,54,87,74,61,30.03,29.94,8,1,8,0.00
2014-8-9,77,67,58,64,58,52,83,73,62,30.09,30.00,7,1,9,0.00
2014-8-10,88,72,62,64,60,55,79,66,39,30.08,29.90,12,2,12,0.00
2014-8-11,82,73,64,68,62,58,81,69,52,29.92,29.72,7,1,7,0.00
2014-8-12,75,71,68,67,63,59,87,77,66,29.83,29.72,10,1,10,0.00
2014-8-13,68,64,62,64,62,60,95,91,85,29.95,29.74,10,1,10,0.09
2014-8-14,71,66,62,65,63,61,96,89,78,29.95,29.86,13,1,13,0.40
2014-8-15,69,65,62,64,62,61,96,92,85,29.99,29.89,9,1,9,0.08
2014-8-16,72,67,63,65,63,61,96,87,71,30.04,29.98,14,1,15,0.02
2014-8-17,78,69,62,67,63,60,94,83,65,30.06,29.96,10,2,10,0.00
2014-8-18,78,70,63,66,63,59,94,80,54,29.97,29.73,12,1,12,0.00
2014-8-19,72,67,62,63,61,58,92,81,68,29.74,29.68,10,1,11,0.00
2014-8-20,69,64,58,61,57,54,89,80,71,29.88,29.70,10,2,10,0.00
2014-8-21,62,59,57,57,55,54,90,85,81,29.94,29.90,3,1,5,0.00